[[{"header":{"parameterUnit":"m.s-1","parameterCategory":1,"la1":30.2991,"la2":30.254,"lo1":-89.0895,"lo2":-89.0444,"dy":0.0017,"dx":0.0017,"nx":28,"ny":28,"refTime":"2025-07-14T09:00:00:Z","depth":0,"parameterNumber":2,"parameterNumberName":"U-component_of_WINDS"},"data":[0,0,0,0,0,0,0,0,0,0,0,0,0,0,0,0,0,0,0,0,0,0,0,0,0,0,0,0,0,0,0,0,0,0,0,0,0,0,0,0,0,0,0,0,0,0,0,0,0,0,0,0,0,0,0,0,0,0,1.3898,1.3898,0,1.3868,1.3867,1.3867,1.3835,1.3834,1.3834,1.3833,1.3801,1.3801,1.38,0,0,0,0,0,0,0,0,0,0,0,0,0,1.3929,1.3929,1.3898,1.3898,1.3897,1.3868,1.3867,1.3867,1.3835,1.3834,1.3834,1.3833,1.3801,1.3801,1.38,0,0,0,0,0,0,0,0,0,0,0,0,0,1.3909,1.3929,1.3898,1.3878,1.3876,1.3868,1.3867,1.3867,1.3835,1.3834,1.3834,1.3833,1.3802,1.3801,1.38,1.381,0,0,1.3798,1.3798,0,0,0,0,0,0,0,0,1.391,1.3908,1.3881,1.3879,1.3877,1.3854,1.3867,1.3848,1.3835,1.385,1.3833,1.3833,1.3819,1.3817,1.3813,1.3808,1.3807,1.3798,1.3798,1.3797,1.3797,0,0,0,0,0,0,0,1.3912,1.3909,1.3886,1.3881,1.3878,1.3871,1.3867,1.3863,1.3839,1.3849,1.3847,1.3844,1.3818,1.3814,1.3812,1.3806,1.3798,1.3798,1.3797,1.3797,1.3811,1.3812,0,0,0,0,0,0,1.3916,1.391,1.3887,1.3885,1.3892,1.3871,1.3866,1.3862,1.3839,1.3835,1.3844,1.3842,1.3815,1.3813,1.3811,1.3822,1.3798,1.3797,1.3797,1.381,1.3811,1.3812,0,0,0,0,0,0,1.3917,1.3914,1.3888,1.3897,1.3893,1.3871,1.3866,1.3862,1.3858,1.3835,1.3831,1.3844,1.3815,1.3812,1.3811,1.3821,1.3797,1.3796,1.381,1.3811,1.3812,1.3845,0,0,0,0,0,0,1.3918,1.3915,1.3918,1.3898,1.3893,1.3889,1.3867,1.3862,1.3857,1.3854,1.3834,1.383,1.3814,1.3812,1.381,1.3819,1.3795,1.3809,1.381,1.3811,1.3843,1.3847,1.3851,0,0,0,0,0,1.3919,1.3927,1.3918,1.3915,1.3896,1.389,1.3887,1.3868,1.3858,1.3861,1.3847,1.3831,1.382,1.3812,1.381,1.3819,1.3808,1.381,1.3811,1.3841,1.3846,1.385,0,0,0,0,0,0,1.3948,1.3924,1.3914,1.3915,1.3905,1.3884,1.3887,1.3874,1.3866,1.3863,1.384,1.3836,1.3839,1.3829,1.3821,1.3829,1.3812,1.3813,1.3835,1.384,1.3844,1.3846,1.3795,0,0,0,0,0,1.3955,1.3952,1.3931,1.3934,1.393,1.391,1.3906,1.3893,1.3881,1.3876,1.3862,1.3851,1.3845,1.3842,1.3835,1.3841,1.3838,1.3846,1.385,1.3854,1.3855,1.3861,1.3865,1.3818,1.3818,1.3818,0,0,1.3968,1.3955,1.3954,1.394,1.393,1.3928,1.3906,1.3904,1.3902,1.3875,1.3875,1.3864,1.385,1.3854,1.3855,1.3846,1.3868,1.3856,1.3859,1.3859,1.3863,1.3867,1.3871,1.3819,1.3819,1.3819,0,0,1.3992,1.3981,1.3984,1.3976,1.3962,1.3949,1.395,1.3932,1.3924,1.3923,1.3904,1.3902,1.3892,1.3884,1.3878,1.3903,1.3888,1.3901,1.3922,1.3927,1.3931,1.3934,1.3945,1.3949,1.3903,1.3903,1.3903,0,1.4011,1.4007,1.3988,1.3988,1.3983,1.396,1.3964,1.3956,1.3941,1.3938,1.3928,1.3918,1.3906,1.3909,1.3916,1.3911,1.3913,1.3903,1.3932,1.3935,1.3938,1.3948,1.3951,1.3905,1.3905,1.3904,1.3904,0,1.4031,1.4029,1.4033,1.4021,1.4016,1.4018,1.4,1.3998,1.3986,1.3974,1.3975,1.3962,1.3953,1.3953,1.394,1.3954,1.3949,1.3936,1.3919,1.3944,1.3953,1.3957,1.3907,1.3907,1.3906,1.3906,0,0,1.4071,1.405,1.4052,1.4047,1.4032,1.403,1.4031,1.4024,1.4024,1.4014,1.4016,1.401,1.3999,1.3993,1.3979,1.3984,1.4007,1.397,1.3969,1.3979,1.4024,1.4036,1.404,1.3997,1.3998,1.3998,1.4026,0,1.4093,1.4095,1.408,1.4086,1.4085,1.4065,1.4066,1.4058,1.4048,1.4045,1.4034,1.4031,1.4015,1.4012,1.4015,1.4003,1.4016,1.4001,1.4,1.4,1.4005,1.4044,1.4055,1.4083,1.4029,1.403,1.403,0,1.4119,1.4113,1.412,1.4107,1.4106,1.4108,1.4102,1.4099,1.409,1.4082,1.4077,1.4063,1.4065,1.4048,1.4051,1.4042,1.404,1.4035,1.4035,1.4035,1.4017,1.4047,1.409,1.4095,1.4035,1.4035,1.4035,0,1.415,1.4144,1.4148,1.4144,1.4128,1.4131,1.4124,1.4114,1.4111,1.4106,1.4104,1.4099,1.4096,1.4093,1.4077,1.4066,1.4083,1.4065,1.4078,1.4079,1.4083,1.4083,1.4129,1.408,1.408,1.408,1.408,0,1.4177,1.4182,1.4162,1.4164,1.4171,1.4153,1.416,1.4151,1.4143,1.4144,1.4126,1.4127,1.4107,1.4107,1.4095,1.4101,1.4099,1.4094,1.4091,1.4096,1.4097,1.4096,1.4094,1.4081,1.4081,1.4081,1.4081,0,1.4212,1.4198,1.4202,1.4188,1.4184,1.419,1.4178,1.418,1.417,1.4172,1.4172,1.4155,1.4155,1.4139,1.4134,1.4127,1.4138,1.4131,1.4142,1.414,1.4155,1.4154,1.4202,1.4208,1.4155,1.4155,1.4156,0,1.4231,1.4235,1.4222,1.4222,1.4217,1.4217,1.4215,1.4199,1.4198,1.4189,1.4193,1.4191,1.4188,1.4188,1.4176,1.4173,1.4167,1.4184,1.4166,1.4172,1.4169,1.417,1.4171,1.4187,1.4188,1.4189,1.4189,0,1.4266,1.426,1.4258,1.4255,1.4254,1.425,1.4245,1.4247,1.4229,1.4229,1.4228,1.4227,1.4223,1.4222,1.4218,1.4211,1.4198,1.4195,1.4198,1.4204,1.4211,1.4209,1.4153,1.4194,1.4193,1.4193,1.4193,1.4192,1.4294,1.4298,1.4291,1.429,1.4286,1.4282,1.4285,1.4276,1.4276,1.4272,1.4263,1.4264,1.4257,1.425,1.4245,1.4247,1.4239,1.4243,1.4244,1.4246,1.425,1.421,1.4246,1.4246,1.4246,1.4246,1.4245,0,1.433,1.4325,1.4325,1.432,1.432,1.4309,1.4304,1.4305,1.4307,1.4302,1.43,1.4301,1.4301,1.429,1.4289,1.4292,1.4286,1.4293,1.4293,1.4292,1.4256,1.4254,1.4298,1.4298,1.4298,1.4298,1.4298,1.4298,1.4349,1.4355,1.4349,1.4354,1.4349,1.4351,1.435,1.4347,1.4344,1.4346,1.4346,1.4339,1.4332,1.4331,1.433,1.4327,1.4328,1.4337,1.4332,1.4299,1.4294,1.4289,1.4288,1.4337,1.4337,1.4368,1.4368,1.4369]},{"header":{"parameterUnit":"m.s-1","parameterCategory":1,"la1":30.2991,"la2":30.254,"lo1":-89.0895,"lo2":-89.0444,"dy":0.0017,"dx":0.0017,"nx":28,"ny":28,"refTime":"2025-07-14T09:00:00:Z","depth":0,"parameterNumber":3,"parameterNumberName":"V-component_of_WINDS"},"data":[0,0,0,0,0,0,0,0,0,0,0,0,0,0,0,0,0,0,0,0,0,0,0,0,0,0,0,0,0,0,0,0,0,0,0,0,0,0,0,0,0,0,0,0,0,0,0,0,0,0,0,0,0,0,0,0,0,0,-1.0167,-1.0168,0,-1.0289,-1.029,-1.0292,-1.0328,-1.0327,-1.0327,-1.0326,-1.0449,-1.0453,-1.0457,0,0,0,0,0,0,0,0,0,0,0,0,0,-0.9965,-0.9969,-1.0167,-1.0168,-1.017,-1.0289,-1.029,-1.0292,-1.0328,-1.0327,-1.0327,-1.0326,-1.0448,-1.0453,-1.0457,0,0,0,0,0,0,0,0,0,0,0,0,0,-1.0066,-0.997,-1.0166,-1.0202,-1.0207,-1.0288,-1.029,-1.0292,-1.0328,-1.0327,-1.0326,-1.0326,-1.0447,-1.0452,-1.0458,-1.0512,0,0,-1.0476,-1.0478,0,0,0,0,0,0,0,0,-1.0061,-1.0074,-1.0195,-1.02,-1.0205,-1.0292,-1.0264,-1.0366,-1.0329,-1.0282,-1.0326,-1.0325,-1.0398,-1.0408,-1.0432,-1.0518,-1.0524,-1.0476,-1.048,-1.0482,-1.0484,0,0,0,0,0,0,0,-1.0053,-1.0069,-1.0215,-1.0197,-1.0203,-1.0212,-1.0226,-1.0284,-1.0344,-1.0286,-1.0289,-1.0303,-1.04,-1.0427,-1.0436,-1.0525,-1.0476,-1.0481,-1.0485,-1.0487,-1.0664,-1.0666,0,0,0,0,0,0,-1.004,-1.0063,-1.0211,-1.0219,-1.0129,-1.0217,-1.0231,-1.0265,-1.0343,-1.0354,-1.0304,-1.0304,-1.0417,-1.0429,-1.044,-1.0511,-1.0482,-1.0488,-1.0491,-1.0663,-1.0665,-1.0666,0,0,0,0,0,0,-1.0036,-1.0053,-1.0206,-1.0142,-1.0162,-1.0221,-1.0259,-1.0268,-1.0295,-1.0356,-1.0367,-1.032,-1.0417,-1.0432,-1.0495,-1.0515,-1.049,-1.0496,-1.0662,-1.0664,-1.0665,-1.0651,0,0,0,0,0,0,-1.003,-1.0052,-1.0073,-1.0142,-1.0165,-1.0259,-1.026,-1.0271,-1.0305,-1.0307,-1.0374,-1.0385,-1.0417,-1.0486,-1.0501,-1.0523,-1.05,-1.066,-1.0663,-1.0665,-1.065,-1.0652,-1.0654,0,0,0,0,0,-1.0023,-1.0063,-1.0073,-1.0091,-1.0193,-1.026,-1.0273,-1.031,-1.0306,-1.0328,-1.0368,-1.0383,-1.0511,-1.0492,-1.0509,-1.0533,-1.0659,-1.0662,-1.0665,-1.0649,-1.0651,-1.0654,0,0,0,0,0,0,-0.9993,-1.0072,-1.0085,-1.0149,-1.0197,-1.0266,-1.0294,-1.0312,-1.0362,-1.0362,-1.0405,-1.042,-1.0481,-1.0513,-1.0491,-1.0591,-1.0585,-1.0592,-1.0568,-1.0571,-1.0573,-1.0564,-1.0505,0,0,0,0,0,-0.9994,-1.0042,-1.0109,-1.0159,-1.0183,-1.0234,-1.0265,-1.029,-1.0342,-1.0362,-1.0407,-1.0456,-1.0508,-1.0541,-1.0592,-1.0655,-1.0671,-1.068,-1.0682,-1.0683,-1.0688,-1.0725,-1.0731,-1.0675,-1.0675,-1.0675,0,0,-0.9996,-1.0046,-1.0073,-1.0154,-1.0195,-1.0244,-1.0251,-1.0302,-1.034,-1.037,-1.0433,-1.0467,-1.0526,-1.0589,-1.0619,-1.0618,-1.0707,-1.0687,-1.0687,-1.0692,-1.0729,-1.0734,-1.0739,-1.0677,-1.0677,-1.0676,0,0,-1.0026,-1.0068,-1.0115,-1.0156,-1.0218,-1.0253,-1.0264,-1.0331,-1.0355,-1.0419,-1.0443,-1.0488,-1.0576,-1.0617,-1.0649,-1.0697,-1.0713,-1.0713,-1.0723,-1.0759,-1.0764,-1.0768,-1.0786,-1.0792,-1.0717,-1.0717,-1.0717,0,-1.0021,-1.0096,-1.0136,-1.0188,-1.0223,-1.0254,-1.0302,-1.034,-1.0415,-1.0439,-1.0437,-1.0549,-1.059,-1.0665,-1.0677,-1.0702,-1.0717,-1.0705,-1.076,-1.0764,-1.0769,-1.0787,-1.0793,-1.0717,-1.0717,-1.0717,-1.0717,0,-1.0088,-1.014,-1.017,-1.0244,-1.0283,-1.0332,-1.038,-1.0414,-1.0436,-1.0471,-1.0537,-1.0588,-1.0651,-1.067,-1.0691,-1.0748,-1.0746,-1.0751,-1.0746,-1.0773,-1.0791,-1.0798,-1.0716,-1.0716,-1.0717,-1.0717,0,0,-1.01,-1.0197,-1.0208,-1.0243,-1.0314,-1.0356,-1.0407,-1.0469,-1.0499,-1.055,-1.0595,-1.0669,-1.0675,-1.0712,-1.0739,-1.077,-1.0807,-1.0772,-1.0774,-1.0777,-1.0874,-1.087,-1.0878,-1.0818,-1.0819,-1.082,-1.087,0,-1.014,-1.0233,-1.0272,-1.0348,-1.0397,-1.0429,-1.0474,-1.0523,-1.0557,-1.0604,-1.0642,-1.0695,-1.0699,-1.0721,-1.0754,-1.0795,-1.0827,-1.0792,-1.086,-1.0862,-1.0845,-1.0887,-1.0882,-1.0926,-1.0877,-1.0878,-1.0879,0,-1.0198,-1.0251,-1.0332,-1.04,-1.0423,-1.0462,-1.0524,-1.0568,-1.0625,-1.0648,-1.0691,-1.0716,-1.0772,-1.0764,-1.0841,-1.0817,-1.0847,-1.0872,-1.0875,-1.0883,-1.0872,-1.0896,-1.0941,-1.0948,-1.089,-1.0889,-1.0888,0,-1.02,-1.0292,-1.0353,-1.0382,-1.0462,-1.049,-1.0525,-1.0581,-1.0617,-1.067,-1.0694,-1.0753,-1.0786,-1.0831,-1.0872,-1.0862,-1.0947,-1.0941,-1.0968,-1.0967,-1.0984,-1.0982,-1.1035,-1.1002,-1.1002,-1.1002,-1.1002,0,-1.0241,-1.0289,-1.0356,-1.0393,-1.0449,-1.0494,-1.0548,-1.0585,-1.0635,-1.068,-1.0711,-1.0753,-1.0804,-1.0853,-1.0885,-1.0946,-1.096,-1.098,-1.0988,-1.0978,-1.0976,-1.0998,-1.0997,-1.1004,-1.1004,-1.1003,-1.1003,0,-1.0253,-1.0299,-1.0368,-1.044,-1.0459,-1.0497,-1.0558,-1.0596,-1.0633,-1.069,-1.0706,-1.0764,-1.0823,-1.0869,-1.0945,-1.0967,-1.1032,-1.104,-1.1013,-1.1017,-1.1041,-1.1038,-1.111,-1.1123,-1.1081,-1.1082,-1.1082,0,-1.0275,-1.0314,-1.039,-1.0423,-1.0458,-1.0511,-1.0548,-1.0594,-1.0632,-1.0701,-1.0731,-1.0793,-1.0844,-1.0938,-1.0986,-1.1046,-1.1056,-1.1077,-1.1065,-1.1054,-1.1057,-1.1055,-1.106,-1.1079,-1.1079,-1.1079,-1.1079,0,-1.0311,-1.0333,-1.0385,-1.0447,-1.0491,-1.0542,-1.0593,-1.0618,-1.0674,-1.0714,-1.0776,-1.0816,-1.0896,-1.0957,-1.1022,-1.1058,-1.1078,-1.1083,-1.1092,-1.1082,-1.1065,-1.1076,-1.1018,-1.1081,-1.1081,-1.1081,-1.1081,-1.108,-1.0329,-1.0366,-1.0426,-1.0485,-1.0528,-1.0576,-1.0616,-1.0659,-1.0711,-1.078,-1.0804,-1.0868,-1.0926,-1.1015,-1.1052,-1.1103,-1.1103,-1.1116,-1.112,-1.1123,-1.1122,-1.1057,-1.1114,-1.1114,-1.1114,-1.1114,-1.1115,0,-1.0367,-1.0408,-1.0462,-1.0533,-1.058,-1.0596,-1.0654,-1.0692,-1.0748,-1.0801,-1.0852,-1.0924,-1.0984,-1.1038,-1.1101,-1.1131,-1.1142,-1.1146,-1.1145,-1.1153,-1.1118,-1.1104,-1.1136,-1.1136,-1.1136,-1.1136,-1.1136,-1.1136,-1.0392,-1.0456,-1.0485,-1.0571,-1.0611,-1.0675,-1.0707,-1.0751,-1.0794,-1.0873,-1.0924,-1.0959,-1.1013,-1.1081,-1.1137,-1.1151,-1.1173,-1.1175,-1.1192,-1.1158,-1.1155,-1.1152,-1.114,-1.1179,-1.1179,-1.1223,-1.1224,-1.1224]}]]